This is the latest recevied weather packets stored in our database for station/object HUGOCO. If no packets are shown the sender has not sent any weather packets the latest 10 day(s).
| Time | Temp. | Humidity | Pressure | Rain* | Wind** | Luminosity | Snow |
|---|---|---|---|---|---|---|---|
| 1777341385 | 10.56° C | 51% | 1014.7 hPa | 0 mm | - | - | - |
| 1777340485 | 10.56° C | 51% | 1014.6 hPa | 0 mm | - | - | - |
| 1777339585 | 11.11° C | 52% | 1014.9 hPa | 0 mm | - | - | - |
| 1777338685 | 11.11° C | 52% | 1014.9 hPa | 0 mm | - | - | - |
| 1777337785 | 11.11° C | 53% | 1015.2 hPa | 0 mm | - | - | - |
| 1777336886 | 11.67° C | 52% | 1015 hPa | 0 mm | - | - | - |
| 1777335992 | 11.67° C | 53% | 1015.1 hPa | 0 mm | - | - | - |
| 1777335085 | 12.22° C | 52% | 1014.9 hPa | 0 mm | - | - | - |
| 1777334185 | 12.22° C | 52% | 1015 hPa | 0 mm | - | - | - |
| 1777333286 | 12.22° C | 52% | 1015.3 hPa | 0 mm | - | - | - |
| 1777332385 | 12.22° C | 52% | 1015.2 hPa | 0 mm | - | - | - |
| 1777331485 | 12.22° C | 52% | 1015.2 hPa | 0 mm | - | - | - |
| 1777330585 | 12.22° C | 53% | 1014.8 hPa | 0 mm | - | - | - |
| 1777329709 | 11.67° C | 54% | 1014.7 hPa | 0 mm | - | - | - |
| 1777327894 | 11.67° C | 55% | 1014.7 hPa | 0 mm | - | - | - |
| 1777326119 | 11.11° C | 56% | 1014.5 hPa | 0 mm | - | - | - |
| 1777326086 | 11.11° C | 56% | 1014.5 hPa | 0 mm | - | - | - |
| 1777325185 | 11.11° C | 56% | 1014.4 hPa | 0 mm | - | - | - |
| 1777324394 | 10.56° C | 57% | 1014.2 hPa | 0 mm | - | - | - |
| 1777324285 | 10.56° C | 57% | 1014.2 hPa | 0 mm | - | - | - |
| 1777323385 | 10.56° C | 59% | 1014.2 hPa | 0 mm | - | - | - |
| 1777322487 | 10° C | 61% | 1014.6 hPa | 0 mm | - | - | - |
| 1777321586 | 9.44° C | 64% | 1014.6 hPa | 0 mm | - | - | - |
| 1777320690 | 9.44° C | 67% | 1014.8 hPa | 0 mm | - | - | - |
| 1777319786 | 8.89° C | 69% | 1014.8 hPa | 0 mm | - | - | - |
* Rain latest hour (hover to see other rain measurements)
** Current wind speed in m/s (hover to see current wind gust speed)